Time,TemperatureF,DewpointF,PressureIn,WindDirection,WindDirectionDegrees,WindSpeedMPH,WindSpeedGustMPH,Humidity,HourlyPrecipIn,Conditions,Clouds,dailyrainin,SolarRadiationWatts/m^2,SoftwareType,DateUTC
2013-06-24 00:00:00,79.4,66.6,29.60,SSE,167,7.0,17.0,65,0.00,,---,0.00,0.00,VWS V14.01,2013-06-24 05:00:00,
2013-06-24 00:03:00,79.4,66.6,29.60,North,357,13.0,16.0,65,0.00,,---,0.00,0.00,VWS V14.01,2013-06-24 05:03:00,
2013-06-24 00:05:00,79.2,66.4,29.60,NNW,344,10.0,18.0,65,0.00,,---,0.00,0.00,VWS V14.01,2013-06-24 05:05:00,
2013-06-24 00:08:00,79.0,66.2,29.60,WNW,299,13.0,18.0,65,0.00,,---,0.00,0.00,VWS V14.01,2013-06-24 05:08:00,
2013-06-24 00:10:00,79.0,66.7,29.60,North,0,13.0,18.0,66,0.00,,---,0.00,0.00,VWS V14.01,2013-06-24 05:10:00,
2013-06-24 00:13:00,78.8,66.5,29.60,NNW,339,14.0,17.0,66,0.00,,---,0.00,0.00,VWS V14.01,2013-06-24 05:13:00,
2013-06-24 00:15:00,78.8,66.5,29.60,West,281,18.0,18.0,66,0.00,,---,0.00,0.00,VWS V14.01,2013-06-24 05:15:00,
2013-06-24 00:18:00,78.6,66.3,29.60,NNW,330,14.0,19.0,66,0.00,,---,0.00,0.00,VWS V14.01,2013-06-24 05:18:00,
2013-06-24 00:20:00,78.6,66.3,29.60,NW,323,13.0,19.0,66,0.00,,---,0.00,0.00,VWS V14.01,2013-06-24 05:20:00,
2013-06-24 00:23:00,78.5,66.6,29.60,NW,313,13.0,19.0,67,0.00,,---,0.00,0.00,VWS V14.01,2013-06-24 05:23:00,
2013-06-24 00:25:00,78.5,66.6,29.60,NW,311,12.0,22.0,67,0.00,,---,0.00,0.00,VWS V14.01,2013-06-24 05:25:00,
2013-06-24 00:28:00,78.5,66.6,29.60,NW,318,13.0,14.0,67,0.00,,---,0.00,0.00,VWS V14.01,2013-06-24 05:28:00,
2013-06-24 00:30:00,78.3,66.4,29.59,NNW,342,13.0,15.0,67,0.00,,---,0.00,0.00,VWS V14.01,2013-06-24 05:30:00,
2013-06-24 00:34:00,78.3,66.9,29.59,North,0,13.0,18.0,68,0.00,,---,0.00,0.00,VWS V14.01,2013-06-24 05:34:00,
2013-06-24 00:35:00,78.3,66.9,29.59,SSE,168,7.0,18.0,68,0.00,,---,0.00,0.00,VWS V14.01,2013-06-24 05:35:00,
2013-06-24 00:39:00,78.3,66.9,29.59,WNW,296,22.0,22.0,68,0.00,,---,0.00,0.00,VWS V14.01,2013-06-24 05:39:00,
2013-06-24 00:40:00,78.3,66.9,29.59,North,0,8.0,22.0,68,0.00,,---,0.00,0.00,VWS V14.01,2013-06-24 05:40:00,
2013-06-24 00:44:00,78.3,66.9,29.59,WSW,253,13.0,14.0,68,0.00,,---,0.00,0.00,VWS V14.01,2013-06-24 05:44:00,
2013-06-24 00:45:00,78.3,66.4,29.59,South,179,10.0,14.0,67,0.00,,---,0.00,0.00,VWS V14.01,2013-06-24 05:45:00,
2013-06-24 00:49:00,78.5,66.6,29.59,NNW,335,13.0,17.0,67,0.00,,---,0.00,0.00,VWS V14.01,2013-06-24 05:49:00,
2013-06-24 00:50:00,78.5,66.6,29.59,NW,315,15.0,17.0,67,0.00,,---,0.00,0.00,VWS V14.01,2013-06-24 05:50:00,
2013-06-24 00:54:00,78.6,66.3,29.59,NNW,339,12.0,17.0,66,0.00,,---,0.00,0.00,VWS V14.01,2013-06-24 05:54:00,
2013-06-24 00:55:00,78.6,66.3,29.59,North,350,11.0,19.0,66,0.00,,---,0.00,0.00,VWS V14.01,2013-06-24 05:55:00,
2013-06-24 00:59:00,78.8,66.5,29.59,NNW,347,10.0,19.0,66,0.00,,---,0.00,0.00,VWS V14.01,2013-06-24 05:59:00,
2013-06-24 01:00:00,78.8,66.5,29.59,NW,309,11.0,19.0,66,0.00,,---,0.00,0.00,VWS V14.01,2013-06-24 06:00:00,
2013-06-24 01:04:00,78.8,66.5,29.59,NNW,346,12.0,17.0,66,0.00,,---,0.00,0.00,VWS V14.01,2013-06-24 06:04:00,
2013-06-24 01:05:00,78.8,66.5,29.59,North,352,12.0,17.0,66,0.00,,---,0.00,0.00,VWS V14.01,2013-06-24 06:05:00,
2013-06-24 01:09:00,78.8,66.1,29.59,North,349,13.0,18.0,65,0.00,,---,0.00,0.00,VWS V14.01,2013-06-24 06:09:00,
2013-06-24 01:10:00,78.8,66.1,29.59,West,275,13.0,18.0,65,0.00,,---,0.00,0.00,VWS V14.01,2013-06-24 06:10:00,
2013-06-24 01:14:00,78.8,66.1,29.58,NW,320,14.0,20.0,65,0.00,,---,0.00,0.00,VWS V14.01,2013-06-24 06:14:00,
2013-06-24 01:15:00,78.8,66.1,29.58,SSE,151,12.0,20.0,65,0.00,,---,0.00,0.00,VWS V14.01,2013-06-24 06:15:00,
2013-06-24 01:19:00,78.8,66.1,29.58,North,0,10.0,18.0,65,0.00,,---,0.00,0.00,VWS V14.01,2013-06-24 06:19:00,
2013-06-24 01:20:00,78.8,66.1,29.58,NW,319,18.0,18.0,65,0.00,,---,0.00,0.00,VWS V14.01,2013-06-24 06:20:00,
2013-06-24 01:25:00,78.8,66.1,29.58,North,353,10.0,18.0,65,0.00,,---,0.00,0.00,VWS V14.01,2013-06-24 06:25:00,
2013-06-24 01:30:00,78.6,65.9,29.58,NNW,335,11.0,22.0,65,0.00,,---,0.00,0.00,VWS V14.01,2013-06-24 06:30:00,
2013-06-24 01:35:00,78.6,66.3,29.58,SSW,198,13.0,20.0,66,0.00,,---,0.00,0.00,VWS V14.01,2013-06-24 06:35:00,
2013-06-24 01:40:00,78.6,66.3,29.58,North,0,10.0,24.0,66,0.00,,---,0.00,0.00,VWS V14.01,2013-06-24 06:40:00,
2013-06-24 01:45:00,78.5,66.6,29.58,NNW,337,14.0,19.0,67,0.00,,---,0.00,0.00,VWS V14.01,2013-06-24 06:45:00,
2013-06-24 01:50:00,78.3,66.9,29.58,NW,326,11.0,19.0,68,0.00,,---,0.00,0.00,VWS V14.01,2013-06-24 06:50:00,
2013-06-24 01:51:00,78.3,66.9,29.58,North,349,8.0,11.0,68,0.00,,---,0.00,0.00,VWS V14.01,2013-06-24 06:51:00,
2013-06-24 01:55:00,78.3,66.9,29.58,NW,306,10.0,19.0,68,0.00,,---,0.00,0.00,VWS V14.01,2013-06-24 06:55:00,
2013-06-24 01:56:00,78.3,66.9,29.58,WNW,287,8.0,10.0,68,0.00,,---,0.00,0.00,VWS V14.01,2013-06-24 06:56:00,
2013-06-24 02:00:00,78.1,67.1,29.58,NNW,335,16.0,19.0,69,0.00,,---,0.00,0.00,VWS V14.01,2013-06-24 07:00:00,
2013-06-24 02:01:00,78.1,67.1,29.58,SW,222,17.0,21.0,69,0.00,,---,0.00,0.00,VWS V14.01,2013-06-24 07:01:00,
2013-06-24 02:05:00,78.1,67.1,29.58,West,264,10.0,21.0,69,0.00,,---,0.00,0.00,VWS V14.01,2013-06-24 07:05:00,
2013-06-24 02:06:00,78.1,67.1,29.58,West,272,11.0,16.0,69,0.00,,---,0.00,0.00,VWS V14.01,2013-06-24 07:06:00,
2013-06-24 02:10:00,77.9,66.9,29.58,North,0,16.0,24.0,69,0.00,,---,0.00,0.00,VWS V14.01,2013-06-24 07:10:00,
2013-06-24 02:11:00,77.9,66.9,29.58,WNW,295,18.0,18.0,69,0.00,,---,0.00,0.00,VWS V14.01,2013-06-24 07:11:00,
2013-06-24 02:15:00,77.7,66.7,29.58,NNW,342,13.0,18.0,69,0.00,,---,0.00,0.00,VWS V14.01,2013-06-24 07:15:00,
2013-06-24 02:16:00,77.7,66.7,29.58,West,260,10.0,15.0,69,0.00,,---,0.00,0.00,VWS V14.01,2013-06-24 07:16:00,
2013-06-24 02:20:00,77.7,66.7,29.58,NW,316,14.0,19.0,69,0.00,,---,0.00,0.00,VWS V14.01,2013-06-24 07:20:00,
2013-06-24 02:21:00,77.7,66.7,29.58,NNW,342,12.0,17.0,69,0.00,,---,0.00,0.00,VWS V14.01,2013-06-24 07:21:00,
2013-06-24 02:25:00,77.6,66.6,29.58,South,179,13.0,19.0,69,0.00,,---,0.00,0.00,VWS V14.01,2013-06-24 07:25:00,
2013-06-24 02:27:00,77.6,66.6,29.58,North,353,9.0,20.0,69,0.00,,---,0.00,0.00,VWS V14.01,2013-06-24 07:27:00,
2013-06-24 02:30:00,77.4,66.9,29.58,NNW,340,9.0,20.0,70,0.00,,---,0.00,0.00,VWS V14.01,2013-06-24 07:30:00,
2013-06-24 02:32:00,77.4,66.9,29.58,WNW,296,8.0,14.0,70,0.00,,---,0.00,0.00,VWS V14.01,2013-06-24 07:32:00,
2013-06-24 02:35:00,77.4,66.9,29.58,WSW,258,14.0,18.0,70,0.00,,---,0.00,0.00,VWS V14.01,2013-06-24 07:35:00,
2013-06-24 02:37:00,77.2,66.7,29.58,North,352,8.0,14.0,70,0.00,,---,0.00,0.00,VWS V14.01,2013-06-24 07:37:00,
2013-06-24 02:40:00,77.2,67.1,29.58,NNW,329,12.0,16.0,71,0.00,,---,0.00,0.00,VWS V14.01,2013-06-24 07:40:00,
2013-06-24 02:42:00,77.2,67.1,29.58,North,353,12.0,13.0,71,0.00,,---,0.00,0.00,VWS V14.01,2013-06-24 07:42:00,
2013-06-24 02:45:00,77.0,66.9,29.57,North,0,12.0,16.0,71,0.00,,---,0.00,0.00,VWS V14.01,2013-06-24 07:45:00,
2013-06-24 02:47:00,77.0,66.9,29.57,North,349,9.0,18.0,71,0.00,,---,0.00,0.00,VWS V14.01,2013-06-24 07:47:00,
2013-06-24 02:50:00,77.0,66.9,29.57,West,267,12.0,18.0,71,0.00,,---,0.00,0.00,VWS V14.01,2013-06-24 07:50:00,
2013-06-24 02:52:00,77.0,67.3,29.57,NNW,333,13.0,19.0,72,0.00,,---,0.00,0.00,VWS V14.01,2013-06-24 07:52:00,
2013-06-24 02:55:00,76.8,67.1,29.57,West,280,10.0,19.0,72,0.00,,---,0.00,0.00,VWS V14.01,2013-06-24 07:55:00,
2013-06-24 02:58:00,76.8,67.1,29.57,NW,312,14.0,17.0,72,0.00,,---,0.00,0.00,VWS V14.01,2013-06-24 07:58:00,
2013-06-24 03:00:00,76.8,67.1,29.57,North,0,14.0,17.0,72,0.00,,---,0.00,0.00,VWS V14.01,2013-06-24 08:00:00,
2013-06-24 03:03:00,76.8,67.1,29.57,North,0,12.0,14.0,72,0.00,,---,0.00,0.00,VWS V14.01,2013-06-24 08:03:00,
2013-06-24 03:05:00,76.8,67.1,29.57,North,0,10.0,16.0,72,0.00,,---,0.00,0.00,VWS V14.01,2013-06-24 08:05:00,
2013-06-24 03:08:00,76.8,66.7,29.57,North,350,11.0,17.0,71,0.00,,---,0.00,0.00,VWS V14.01,2013-06-24 08:08:00,
2013-06-24 03:10:00,76.8,66.7,29.57,North,349,13.0,17.0,71,0.00,,---,0.00,0.00,VWS V14.01,2013-06-24 08:10:00,
2013-06-24 03:13:00,76.8,66.7,29.57,NW,316,7.0,16.0,71,0.00,,---,0.00,0.00,VWS V14.01,2013-06-24 08:13:00,
2013-06-24 03:15:00,76.7,66.6,29.57,South,188,11.0,16.0,71,0.00,,---,0.00,0.00,VWS V14.01,2013-06-24 08:15:00,
2013-06-24 03:18:00,76.7,66.6,29.57,NW,308,7.0,17.0,71,0.00,,---,0.00,0.00,VWS V14.01,2013-06-24 08:18:00,
2013-06-24 03:20:00,76.8,66.7,29.57,NNW,337,11.0,19.0,71,0.00,,---,0.00,0.00,VWS V14.01,2013-06-24 08:20:00,
2013-06-24 03:23:00,76.7,66.6,29.57,North,0,8.0,16.0,71,0.00,,---,0.00,0.00,VWS V14.01,2013-06-24 08:23:00,
2013-06-24 03:25:00,76.7,66.6,29.57,WSW,237,10.0,18.0,71,0.00,,---,0.00,0.00,VWS V14.01,2013-06-24 08:25:00,
2013-06-24 03:28:00,76.7,66.2,29.57,NNW,342,9.0,17.0,70,0.00,,---,0.00,0.00,VWS V14.01,2013-06-24 08:28:00,
2013-06-24 03:30:00,76.7,66.6,29.57,WNW,282,7.0,17.0,71,0.00,,---,0.00,0.00,VWS V14.01,2013-06-24 08:30:00,
2013-06-24 03:33:00,76.7,66.6,29.57,West,275,14.0,21.0,71,0.00,,---,0.00,0.00,VWS V14.01,2013-06-24 08:33:00,
2013-06-24 03:35:00,76.7,66.6,29.57,North,0,10.0,21.0,71,0.00,,---,0.00,0.00,VWS V14.01,2013-06-24 08:35:00,
2013-06-24 03:39:00,76.7,66.6,29.57,WSW,241,13.0,19.0,71,0.00,,---,0.00,0.00,VWS V14.01,2013-06-24 08:39:00,
2013-06-24 03:40:00,76.7,66.6,29.57,NNW,333,12.0,19.0,71,0.00,,---,0.00,0.00,VWS V14.01,2013-06-24 08:40:00,
2013-06-24 03:44:00,76.5,66.4,29.57,North,352,16.0,20.0,71,0.00,,---,0.00,0.00,VWS V14.01,2013-06-24 08:44:00,
2013-06-24 03:45:00,76.5,66.4,29.57,North,0,14.0,20.0,71,0.00,,---,0.00,0.00,VWS V14.01,2013-06-24 08:45:00,
2013-06-24 03:49:00,76.5,66.4,29.57,WNW,296,12.0,22.0,71,0.00,,---,0.00,0.00,VWS V14.01,2013-06-24 08:49:00,
2013-06-24 03:50:00,76.5,66.4,29.57,West,277,8.0,22.0,71,0.00,,---,0.00,0.00,VWS V14.01,2013-06-24 08:50:00,
2013-06-24 03:54:00,76.5,66.4,29.57,WNW,291,14.0,18.0,71,0.00,,---,0.00,0.00,VWS V14.01,2013-06-24 08:54:00,
2013-06-24 03:55:00,76.5,66.4,29.57,NW,304,16.0,18.0,71,0.00,,---,0.00,0.00,VWS V14.01,2013-06-24 08:55:00,
2013-06-24 03:59:00,76.3,66.2,29.57,NNW,344,12.0,24.0,71,0.00,,---,0.00,0.00,VWS V14.01,2013-06-24 08:59:00,
2013-06-24 04:00:00,76.3,66.2,29.57,SW,232,24.0,24.0,71,0.00,,---,0.00,0.00,VWS V14.01,2013-06-24 09:00:00,
2013-06-24 04:05:00,76.3,66.2,29.57,North,356,12.0,24.0,71,0.00,,---,0.00,0.00,VWS V14.01,2013-06-24 09:05:00,
2013-06-24 04:10:00,76.3,65.8,29.57,North,349,15.0,25.0,70,0.00,,---,0.00,0.00,VWS V14.01,2013-06-24 09:10:00,
2013-06-24 04:15:00,76.3,65.8,29.57,North,354,11.0,17.0,70,0.00,,---,0.00,0.00,VWS V14.01,2013-06-24 09:15:00,
2013-06-24 04:20:00,76.3,65.8,29.57,NW,308,12.0,18.0,70,0.00,,---,0.00,0.00,VWS V14.01,2013-06-24 09:20:00,
2013-06-24 04:25:00,76.5,66.0,29.57,NW,323,13.0,25.0,70,0.00,,---,0.00,0.00,VWS V14.01,2013-06-24 09:25:00,
2013-06-24 04:26:00,76.5,65.6,29.57,North,349,15.0,15.0,69,0.00,,---,0.00,0.00,VWS V14.01,2013-06-24 09:26:00,
2013-06-24 04:30:00,76.5,65.6,29.56,NW,315,13.0,22.0,69,0.00,,---,0.00,0.00,VWS V14.01,2013-06-24 09:30:00,
2013-06-24 04:32:00,76.7,65.8,29.56,West,275,17.0,27.0,69,0.00,,---,0.00,0.00,VWS V14.01,2013-06-24 09:32:00,
2013-06-24 04:35:00,76.7,65.8,29.56,North,0,12.0,27.0,69,0.00,,---,0.00,0.00,VWS V14.01,2013-06-24 09:35:00,
2013-06-24 04:37:00,76.7,65.8,29.56,WNW,296,17.0,17.0,69,0.00,,---,0.00,0.00,VWS V14.01,2013-06-24 09:37:00,
2013-06-24 04:40:00,76.7,65.8,29.56,West,272,18.0,18.0,69,0.00,,---,0.00,0.00,VWS V14.01,2013-06-24 09:40:00,
2013-06-24 04:42:00,76.7,65.8,29.56,West,263,13.0,21.0,69,0.00,,---,0.00,0.00,VWS V14.01,2013-06-24 09:42:00,
2013-06-24 04:45:00,76.7,65.8,29.56,SW,224,16.0,28.0,69,0.00,,---,0.00,0.00,VWS V14.01,2013-06-24 09:45:00,
2013-06-24 04:48:00,76.7,65.8,29.56,NNW,346,15.0,22.0,69,0.00,,---,0.00,0.00,VWS V14.01,2013-06-24 09:48:00,
2013-06-24 04:50:00,76.7,65.8,29.56,NNW,330,12.0,22.0,69,0.00,,---,0.00,0.00,VWS V14.01,2013-06-24 09:50:00,
2013-06-24 04:53:00,76.7,65.8,29.56,NNW,344,14.0,22.0,69,0.00,,---,0.00,0.00,VWS V14.01,2013-06-24 09:53:00,
2013-06-24 04:55:00,76.8,65.9,29.56,North,354,18.0,22.0,69,0.00,,---,0.00,0.00,VWS V14.01,2013-06-24 09:55:00,
2013-06-24 04:58:00,76.8,65.9,29.56,WNW,301,13.0,19.0,69,0.00,,---,0.00,0.00,VWS V14.01,2013-06-24 09:58:00,
2013-06-24 05:00:00,76.8,65.4,29.56,North,354,17.0,21.0,68,0.00,,---,0.00,0.00,VWS V14.01,2013-06-24 10:00:00,
2013-06-24 05:04:00,76.8,65.4,29.56,North,0,22.0,26.0,68,0.00,,---,0.00,0.00,VWS V14.01,2013-06-24 10:04:00,
2013-06-24 05:05:00,77.0,65.6,29.56,SW,234,8.0,26.0,68,0.00,,---,0.00,0.00,VWS V14.01,2013-06-24 10:05:00,
2013-06-24 05:09:00,76.8,65.0,29.56,WSW,239,16.0,20.0,67,0.00,,---,0.00,0.00,VWS V14.01,2013-06-24 10:09:00,
2013-06-24 05:10:00,77.0,65.2,29.56,NW,319,12.0,27.0,67,0.00,,---,0.00,0.00,VWS V14.01,2013-06-24 10:10:00,
2013-06-24 05:14:00,77.0,65.2,29.56,NNW,332,12.0,25.0,67,0.00,,---,0.00,0.00,VWS V14.01,2013-06-24 10:14:00,
2013-06-24 05:15:00,77.0,65.2,29.56,SW,229,12.0,25.0,67,0.00,,---,0.00,0.00,VWS V14.01,2013-06-24 10:15:00,
2013-06-24 05:20:00,77.0,65.2,29.56,SW,222,11.0,29.0,67,0.00,,---,0.00,0.00,VWS V14.01,2013-06-24 10:20:00,
2013-06-24 05:25:00,77.0,65.2,29.56,NNW,343,10.0,25.0,67,0.00,,---,0.00,0.00,VWS V14.01,2013-06-24 10:25:00,
2013-06-24 05:30:00,77.0,65.2,29.57,SSW,210,19.0,26.0,67,0.00,,---,0.00,0.00,VWS V14.01,2013-06-24 10:30:00,
2013-06-24 05:35:00,77.2,65.0,29.57,NW,323,18.0,21.0,66,0.00,,---,0.00,0.00,VWS V14.01,2013-06-24 10:35:00,
2013-06-24 05:40:00,77.2,65.0,29.57,NNW,333,19.0,27.0,66,0.00,,---,0.00,0.00,VWS V14.01,2013-06-24 10:40:00,
2013-06-24 05:45:00,77.2,65.4,29.57,NW,313,20.0,20.0,67,0.00,,---,0.00,0.00,VWS V14.01,2013-06-24 10:45:00,
2013-06-24 05:50:00,77.2,65.0,29.57,North,353,18.0,28.0,66,0.00,,---,0.00,0.00,VWS V14.01,2013-06-24 10:50:00,
2013-06-24 05:51:00,77.2,65.0,29.57,NW,319,11.0,18.0,66,0.00,,---,0.00,0.00,VWS V14.01,2013-06-24 10:51:00,
2013-06-24 05:55:00,77.2,65.4,29.57,West,277,26.0,26.0,67,0.00,,---,0.00,0.00,VWS V14.01,2013-06-24 10:55:00,
2013-06-24 05:56:00,77.2,65.4,29.57,NW,320,12.0,26.0,67,0.00,,---,0.00,0.00,VWS V14.01,2013-06-24 10:56:00,
2013-06-24 06:00:00,77.0,65.2,29.57,WNW,299,17.0,26.0,67,0.00,,---,0.00,0.00,VWS V14.01,2013-06-24 11:00:00,
2013-06-24 06:01:00,77.0,65.2,29.57,WNW,284,10.0,25.0,67,0.00,,---,0.00,0.00,VWS V14.01,2013-06-24 11:01:00,
2013-06-24 06:05:00,77.0,65.2,29.57,North,354,12.0,25.0,67,0.00,,---,0.00,0.00,VWS V14.01,2013-06-24 11:05:00,
2013-06-24 06:06:00,76.8,65.0,29.57,North,359,19.0,19.0,67,0.00,,---,0.00,0.00,VWS V14.01,2013-06-24 11:06:00,
2013-06-24 06:10:00,76.8,65.0,29.57,North,354,14.0,20.0,67,0.00,,---,0.00,0.00,VWS V14.01,2013-06-24 11:10:00,
2013-06-24 06:11:00,76.8,65.0,29.57,North,359,14.0,24.0,67,0.00,,---,0.00,0.00,VWS V14.01,2013-06-24 11:11:00,
2013-06-24 06:15:00,76.8,65.0,29.59,WSW,254,11.0,24.0,67,0.00,,---,0.00,7.00,VWS V14.01,2013-06-24 11:15:00,
2013-06-24 06:17:00,76.7,64.9,29.59,WSW,240,18.0,18.0,67,0.00,,---,0.00,7.00,VWS V14.01,2013-06-24 11:17:00,
2013-06-24 06:20:00,76.7,64.9,29.59,SW,219,17.0,21.0,67,0.00,,---,0.00,16.00,VWS V14.01,2013-06-24 11:20:00,
2013-06-24 06:22:00,76.7,64.9,29.59,NW,309,13.0,17.0,67,0.00,,---,0.00,16.00,VWS V14.01,2013-06-24 11:22:00,
2013-06-24 06:25:00,76.7,64.9,29.59,North,354,10.0,17.0,67,0.00,,---,0.00,18.00,VWS V14.01,2013-06-24 11:25:00,
2013-06-24 06:27:00,76.7,64.9,29.59,North,354,17.0,17.0,67,0.00,,---,0.00,18.00,VWS V14.01,2013-06-24 11:27:00,
2013-06-24 06:30:00,76.7,64.9,29.59,WSW,248,21.0,21.0,67,0.00,,---,0.00,18.00,VWS V14.01,2013-06-24 11:30:00,
2013-06-24 06:32:00,76.8,65.0,29.59,NNW,340,19.0,21.0,67,0.00,,---,0.00,19.00,VWS V14.01,2013-06-24 11:32:00,
2013-06-24 06:35:00,76.8,65.0,29.59,North,353,12.0,21.0,67,0.00,,---,0.00,19.00,VWS V14.01,2013-06-24 11:35:00,
2013-06-24 06:38:00,76.8,65.0,29.59,North,349,16.0,19.0,67,0.00,,---,0.00,19.00,VWS V14.01,2013-06-24 11:38:00,
2013-06-24 06:40:00,76.8,65.0,29.59,West,272,9.0,20.0,67,0.00,,---,0.00,30.00,VWS V14.01,2013-06-24 11:40:00,
2013-06-24 06:43:00,76.8,65.0,29.59,North,356,11.0,17.0,67,0.00,,---,0.00,30.00,VWS V14.01,2013-06-24 11:43:00,
2013-06-24 06:45:00,76.8,65.0,29.59,North,359,11.0,20.0,67,0.00,,---,0.00,30.00,VWS V14.01,2013-06-24 11:45:00,
2013-06-24 06:48:00,76.8,65.0,29.59,North,352,12.0,19.0,67,0.00,,---,0.00,32.00,VWS V14.01,2013-06-24 11:48:00,
2013-06-24 06:50:00,76.8,65.0,29.59,NW,304,19.0,19.0,67,0.00,,---,0.00,32.00,VWS V14.01,2013-06-24 11:50:00,
2013-06-24 06:53:00,76.8,65.0,29.59,North,354,10.0,19.0,67,0.00,,---,0.00,37.00,VWS V14.01,2013-06-24 11:53:00,
2013-06-24 06:55:00,76.8,65.0,29.59,NW,309,21.0,21.0,67,0.00,,---,0.00,37.00,VWS V14.01,2013-06-24 11:55:00,
2013-06-24 06:58:00,76.7,64.9,29.59,NNW,343,16.0,21.0,67,0.00,,---,0.00,42.00,VWS V14.01,2013-06-24 11:58:00,
2013-06-24 07:00:00,76.8,65.0,29.58,South,188,15.0,21.0,67,0.00,,---,0.00,53.00,VWS V14.01,2013-06-24 12:00:00,
2013-06-24 07:03:00,76.8,65.0,29.58,West,270,24.0,28.0,67,0.00,,---,0.00,53.00,VWS V14.01,2013-06-24 12:03:00,
2013-06-24 07:05:00,76.8,65.0,29.58,North,353,17.0,28.0,67,0.00,,---,0.00,60.00,VWS V14.01,2013-06-24 12:05:00,
2013-06-24 07:09:00,76.8,64.6,29.58,NNW,337,17.0,26.0,66,0.00,,---,0.00,53.00,VWS V14.01,2013-06-24 12:09:00,
2013-06-24 07:10:00,76.8,64.6,29.58,NW,315,19.0,26.0,66,0.00,,---,0.00,58.00,VWS V14.01,2013-06-24 12:10:00,
2013-06-24 07:14:00,76.8,64.6,29.58,North,359,21.0,25.0,66,0.00,,---,0.00,69.00,VWS V14.01,2013-06-24 12:14:00,
2013-06-24 07:15:00,76.8,64.6,29.57,NNW,343,17.0,25.0,66,0.00,,---,0.00,76.00,VWS V14.01,2013-06-24 12:15:00,
2013-06-24 07:19:00,77.0,64.8,29.57,NW,323,16.0,27.0,66,0.00,,---,0.00,86.00,VWS V14.01,2013-06-24 12:19:00,
2013-06-24 07:20:00,77.0,64.8,29.57,WSW,251,21.0,27.0,66,0.00,,---,0.00,97.00,VWS V14.01,2013-06-24 12:20:00,
2013-06-24 07:24:00,77.2,65.0,29.57,NNW,333,24.0,28.0,66,0.00,,---,0.00,104.00,VWS V14.01,2013-06-24 12:24:00,
2013-06-24 07:25:00,77.2,65.0,29.57,West,277,19.0,29.0,66,0.00,,---,0.00,113.00,VWS V14.01,2013-06-24 12:25:00,
2013-06-24 07:29:00,77.4,64.7,29.56,WNW,282,14.0,30.0,65,0.00,,---,0.00,130.00,VWS V14.01,2013-06-24 12:29:00,
2013-06-24 07:30:00,77.4,65.2,29.56,SSW,212,11.0,30.0,66,0.00,,---,0.00,141.00,VWS V14.01,2013-06-24 12:30:00,
2013-06-24 07:34:00,77.6,64.9,29.56,SW,236,12.0,28.0,65,0.00,,---,0.00,155.00,VWS V14.01,2013-06-24 12:34:00,
2013-06-24 07:35:00,77.6,64.9,29.56,SW,217,21.0,28.0,65,0.00,,---,0.00,155.00,VWS V14.01,2013-06-24 12:35:00,
2013-06-24 07:40:00,77.7,65.0,29.56,North,359,22.0,32.0,65,0.00,,---,0.00,167.00,VWS V14.01,2013-06-24 12:40:00,
2013-06-24 07:45:00,77.9,65.2,29.56,NW,325,27.0,29.0,65,0.00,,---,0.00,134.00,VWS V14.01,2013-06-24 12:45:00,
2013-06-24 07:46:00,77.9,65.2,29.56,WSW,244,26.0,31.0,65,0.00,,---,0.00,134.00,VWS V14.01,2013-06-24 12:46:00,
2013-06-24 07:50:00,77.9,65.2,29.56,WNW,294,33.0,33.0,65,0.00,,---,0.00,128.00,VWS V14.01,2013-06-24 12:50:00,
2013-06-24 07:51:00,77.9,65.2,29.56,WSW,243,22.0,33.0,65,0.00,,---,0.00,128.00,VWS V14.01,2013-06-24 12:51:00,
2013-06-24 07:55:00,78.1,65.4,29.56,WNW,291,25.0,35.0,65,0.00,,---,0.00,139.00,VWS V14.01,2013-06-24 12:55:00,
2013-06-24 07:56:00,78.1,64.9,29.56,North,0,32.0,35.0,64,0.00,,---,0.00,139.00,VWS V14.01,2013-06-24 12:56:00,
2013-06-24 08:00:00,78.3,65.1,29.56,WSW,258,28.0,40.0,64,0.00,,---,0.00,143.00,VWS V14.01,2013-06-24 13:00:00,
2013-06-24 08:01:00,78.5,65.3,29.56,NNW,347,28.0,28.0,64,0.00,,---,0.00,148.00,VWS V14.01,2013-06-24 13:01:00,
2013-06-24 08:05:00,78.6,64.5,29.56,WSW,257,19.0,39.0,62,0.00,,---,0.00,174.00,VWS V14.01,2013-06-24 13:05:00,
2013-06-24 08:06:00,78.6,64.5,29.56,WSW,253,22.0,32.0,62,0.00,,---,0.00,169.00,VWS V14.01,2013-06-24 13:06:00,
2013-06-24 08:10:00,78.8,64.7,29.56,SSW,208,26.0,34.0,62,0.00,,---,0.00,201.00,VWS V14.01,2013-06-24 13:10:00,
2013-06-24 08:12:00,78.8,64.7,29.56,SW,234,26.0,31.0,62,0.00,,---,0.00,208.00,VWS V14.01,2013-06-24 13:12:00,
2013-06-24 08:15:00,79.0,64.9,29.56,NW,315,26.0,35.0,62,0.00,,---,0.00,222.00,VWS V14.01,2013-06-24 13:15:00,
2013-06-24 08:17:00,79.2,65.1,29.56,NW,322,24.0,35.0,62,0.00,,---,0.00,225.00,VWS V14.01,2013-06-24 13:17:00,
2013-06-24 08:20:00,79.2,64.6,29.56,SW,230,25.0,40.0,61,0.00,,---,0.00,241.00,VWS V14.01,2013-06-24 13:20:00,
2013-06-24 08:22:00,79.4,65.3,29.56,NW,304,25.0,27.0,62,0.00,,---,0.00,236.00,VWS V14.01,2013-06-24 13:22:00,
2013-06-24 08:25:00,79.6,65.0,29.56,West,270,18.0,32.0,61,0.00,,---,0.00,267.00,VWS V14.01,2013-06-24 13:25:00,
2013-06-24 08:27:00,79.6,65.0,29.56,SW,215,13.0,27.0,61,0.00,,---,0.00,269.00,VWS V14.01,2013-06-24 13:27:00,
2013-06-24 08:30:00,79.8,65.2,29.57,SSW,209,29.0,33.0,61,0.00,,---,0.00,297.00,VWS V14.01,2013-06-24 13:30:00,
2013-06-24 08:33:00,79.9,64.8,29.57,SSW,212,24.0,33.0,60,0.00,,---,0.00,299.00,VWS V14.01,2013-06-24 13:33:00,
2013-06-24 08:35:00,80.1,64.5,29.57,SW,217,28.0,34.0,59,0.00,,---,0.00,287.00,VWS V14.01,2013-06-24 13:35:00,
2013-06-24 08:38:00,80.3,64.7,29.57,South,188,22.0,29.0,59,0.00,,---,0.00,303.00,VWS V14.01,2013-06-24 13:38:00,
2013-06-24 08:40:00,80.5,64.9,29.57,West,260,20.0,31.0,59,0.00,,---,0.00,306.00,VWS V14.01,2013-06-24 13:40:00,
2013-06-24 08:43:00,80.7,65.1,29.57,SSW,202,16.0,26.0,59,0.00,,---,0.00,290.00,VWS V14.01,2013-06-24 13:43:00,
2013-06-24 08:45:00,80.7,65.1,29.57,SW,219,22.0,26.0,59,0.00,,---,0.00,317.00,VWS V14.01,2013-06-24 13:45:00,
2013-06-24 08:48:00,80.9,64.8,29.57,North,0,24.0,32.0,58,0.00,,---,0.00,318.00,VWS V14.01,2013-06-24 13:48:00,
2013-06-24 08:50:00,80.9,64.8,29.57,SW,219,20.0,32.0,58,0.00,,---,0.00,318.00,VWS V14.01,2013-06-24 13:50:00,
2013-06-24 08:53:00,81.1,64.9,29.57,WSW,237,18.0,29.0,58,0.00,,---,0.00,331.00,VWS V14.01,2013-06-24 13:53:00,
2013-06-24 08:55:00,81.1,64.9,29.57,SSW,192,18.0,29.0,58,0.00,,---,0.00,329.00,VWS V14.01,2013-06-24 13:55:00,
2013-06-24 08:58:00,81.1,64.9,29.57,SW,230,18.0,33.0,58,0.00,,---,0.00,333.00,VWS V14.01,2013-06-24 13:58:00,
2013-06-24 09:00:00,81.2,64.5,29.59,SW,223,22.0,33.0,57,0.00,,---,0.00,331.00,VWS V14.01,2013-06-24 14:00:00,
2013-06-24 09:04:00,81.2,65.0,29.59,SW,226,21.0,30.0,58,0.00,,---,0.00,345.00,VWS V14.01,2013-06-24 14:04:00,
2013-06-24 09:05:00,81.2,65.0,29.59,SW,220,21.0,30.0,58,0.00,,---,0.00,359.00,VWS V14.01,2013-06-24 14:05:00,
2013-06-24 09:09:00,81.4,65.2,29.59,SW,229,27.0,31.0,58,0.00,,---,0.00,366.00,VWS V14.01,2013-06-24 14:09:00,
2013-06-24 09:10:00,81.4,64.7,29.59,SW,223,25.0,31.0,57,0.00,,---,0.00,370.00,VWS V14.01,2013-06-24 14:10:00,
2013-06-24 09:15:00,81.8,65.1,29.59,SW,234,29.0,29.0,57,0.00,,---,0.00,336.00,VWS V14.01,2013-06-24 14:15:00,
2013-06-24 09:20:00,81.8,64.6,29.59,SW,224,14.0,28.0,56,0.00,,---,0.00,417.00,VWS V14.01,2013-06-24 14:20:00,
2013-06-24 09:25:00,82.2,65.0,29.59,SW,220,21.0,32.0,56,0.00,,---,0.00,486.00,VWS V14.01,2013-06-24 14:25:00,
2013-06-24 09:30:00,82.6,65.3,29.59,SW,222,13.0,28.0,56,0.00,,---,0.00,489.00,VWS V14.01,2013-06-24 14:30:00,
2013-06-24 09:35:00,83.0,65.2,29.59,WSW,250,15.0,21.0,55,0.00,,---,0.00,494.00,VWS V14.01,2013-06-24 14:35:00,
2013-06-24 09:40:00,83.2,64.8,29.59,NNW,333,32.0,33.0,54,0.00,,---,0.00,526.00,VWS V14.01,2013-06-24 14:40:00,
2013-06-24 09:41:00,83.2,64.8,29.59,SW,230,25.0,32.0,54,0.00,,---,0.00,526.00,VWS V14.01,2013-06-24 14:41:00,
2013-06-24 09:45:00,83.4,64.5,29.59,SSW,193,33.0,33.0,53,0.00,,---,0.00,530.00,VWS V14.01,2013-06-24 14:45:00,
2013-06-24 09:46:00,83.4,64.5,29.59,WSW,243,30.0,33.0,53,0.00,,---,0.00,530.00,VWS V14.01,2013-06-24 14:46:00,
2013-06-24 09:50:00,83.4,64.5,29.59,WSW,240,28.0,35.0,53,0.00,,---,0.00,516.00,VWS V14.01,2013-06-24 14:50:00,
2013-06-24 09:51:00,83.4,64.5,29.59,SW,236,20.0,30.0,53,0.00,,---,0.00,516.00,VWS V14.01,2013-06-24 14:51:00,
2013-06-24 09:55:00,83.6,64.7,29.59,WSW,241,28.0,30.0,53,0.00,,---,0.00,524.00,VWS V14.01,2013-06-24 14:55:00,
2013-06-24 09:56:00,83.6,64.7,29.59,SW,230,26.0,33.0,53,0.00,,---,0.00,524.00,VWS V14.01,2013-06-24 14:56:00,
2013-06-24 10:00:00,83.8,64.9,29.60,SW,220,17.0,36.0,53,0.00,,---,0.00,558.00,VWS V14.01,2013-06-24 15:00:00,
2013-06-24 10:01:00,83.8,64.9,29.60,SSW,212,30.0,30.0,53,0.00,,---,0.00,558.00,VWS V14.01,2013-06-24 15:01:00,
2013-06-24 10:10:00,84.0,64.5,29.60,WSW,243,20.0,25.0,52,0.00,,---,0.00,493.00,VWS V14.01,2013-06-24 15:10:00,
2013-06-24 10:15:00,84.1,64.6,29.59,WSW,254,24.0,32.0,52,0.00,,---,0.00,243.00,VWS V14.01,2013-06-24 15:15:00,
2013-06-24 10:16:00,84.0,64.5,29.59,SSW,196,30.0,30.0,52,0.00,,---,0.00,243.00,VWS V14.01,2013-06-24 15:16:00,
2013-06-24 10:20:00,84.0,65.1,29.59,WSW,237,20.0,32.0,53,0.00,,---,0.00,280.00,VWS V14.01,2013-06-24 15:20:00,
2013-06-24 10:21:00,84.0,65.1,29.59,NNW,344,20.0,32.0,53,0.00,,---,0.00,289.00,VWS V14.01,2013-06-24 15:21:00,
2013-06-24 10:25:00,84.0,64.5,29.59,WSW,246,20.0,32.0,52,0.00,,---,0.00,605.00,VWS V14.01,2013-06-24 15:25:00,
2013-06-24 10:26:00,84.0,64.5,29.59,SW,224,32.0,32.0,52,0.00,,---,0.00,628.00,VWS V14.01,2013-06-24 15:26:00,
2013-06-24 10:30:00,84.5,64.4,29.59,WNW,282,22.0,35.0,51,0.00,,---,0.00,607.00,VWS V14.01,2013-06-24 15:30:00,
2013-06-24 10:31:00,84.7,65.1,29.59,SW,219,22.0,28.0,52,0.00,,---,0.00,623.00,VWS V14.01,2013-06-24 15:31:00,
2013-06-24 10:35:00,85.1,65.0,29.59,West,280,13.0,31.0,51,0.00,,---,0.00,501.00,VWS V14.01,2013-06-24 15:35:00,
2013-06-24 10:36:00,85.1,65.0,29.59,SW,229,14.0,25.0,51,0.00,,---,0.00,498.00,VWS V14.01,2013-06-24 15:36:00,
2013-06-24 10:40:00,85.3,64.6,29.59,SW,229,27.0,30.0,50,0.00,,---,0.00,521.00,VWS V14.01,2013-06-24 15:40:00,
2013-06-24 10:41:00,85.3,65.1,29.59,SSW,196,29.0,33.0,51,0.00,,---,0.00,537.00,VWS V14.01,2013-06-24 15:41:00,
2013-06-24 10:45:00,85.3,64.6,29.59,WSW,253,30.0,34.0,50,0.00,,---,0.00,531.00,VWS V14.01,2013-06-24 15:45:00,
2013-06-24 10:47:00,85.3,65.1,29.59,SSW,213,17.0,30.0,51,0.00,,---,0.00,496.00,VWS V14.01,2013-06-24 15:47:00,
2013-06-24 10:50:00,85.5,65.3,29.59,SSW,193,28.0,30.0,51,0.00,,---,0.00,403.00,VWS V14.01,2013-06-24 15:50:00,
2013-06-24 10:52:00,85.5,64.8,29.59,SSW,199,27.0,28.0,50,0.00,,---,0.00,408.00,VWS V14.01,2013-06-24 15:52:00,
2013-06-24 10:55:00,85.3,65.1,29.59,SSW,202,17.0,29.0,51,0.00,,---,0.00,380.00,VWS V14.01,2013-06-24 15:55:00,
2013-06-24 10:57:00,85.3,65.7,29.59,SW,236,22.0,22.0,52,0.00,,---,0.00,306.00,VWS V14.01,2013-06-24 15:57:00,
2013-06-24 11:00:00,84.9,65.3,29.59,SSW,209,19.0,26.0,52,0.00,,---,0.00,276.00,VWS V14.01,2013-06-24 16:00:00,
2013-06-24 11:04:00,84.9,65.3,29.59,WSW,237,19.0,22.0,52,0.00,,---,0.00,267.00,VWS V14.01,2013-06-24 16:04:00,
2013-06-24 11:05:00,84.7,65.1,29.59,SW,236,26.0,32.0,52,0.00,,---,0.00,269.00,VWS V14.01,2013-06-24 16:05:00,
2013-06-24 11:09:00,84.7,65.1,29.59,WSW,253,24.0,29.0,52,0.00,,---,0.00,359.00,VWS V14.01,2013-06-24 16:09:00,
2013-06-24 11:10:00,84.7,65.1,29.59,SW,234,26.0,29.0,52,0.00,,---,0.00,382.00,VWS V14.01,2013-06-24 16:10:00,
2013-06-24 11:14:00,85.1,65.5,29.59,SW,223,17.0,28.0,52,0.00,,---,0.00,401.00,VWS V14.01,2013-06-24 16:14:00,
2013-06-24 11:15:00,85.3,65.1,29.59,SW,223,21.0,28.0,51,0.00,,---,0.00,449.00,VWS V14.01,2013-06-24 16:15:00,
2013-06-24 11:20:00,85.7,64.9,29.59,SSW,213,20.0,31.0,50,0.00,,---,0.00,354.00,VWS V14.01,2013-06-24 16:20:00,
2013-06-24 11:25:00,85.7,64.4,29.59,NW,312,21.0,28.0,49,0.00,,---,0.00,304.00,VWS V14.01,2013-06-24 16:25:00,
2013-06-24 11:30:00,85.9,64.5,29.59,SW,223,28.0,30.0,49,0.00,,---,0.00,274.00,VWS V14.01,2013-06-24 16:30:00,
2013-06-24 11:35:00,85.9,64.5,29.59,SSW,192,14.0,31.0,49,0.00,,---,0.00,292.00,VWS V14.01,2013-06-24 16:35:00,
2013-06-24 11:40:00,85.9,64.5,29.59,SSW,192,18.0,32.0,49,0.00,,---,0.00,334.00,VWS V14.01,2013-06-24 16:40:00,
2013-06-24 11:45:00,85.7,64.4,29.60,West,264,22.0,33.0,49,0.00,,---,0.00,341.00,VWS V14.01,2013-06-24 16:45:00,
2013-06-24 11:50:00,85.7,64.9,29.60,SSW,192,14.0,27.0,50,0.00,,---,0.00,318.00,VWS V14.01,2013-06-24 16:50:00,
2013-06-24 11:55:00,85.7,64.4,29.60,South,188,11.0,27.0,49,0.00,,---,0.00,276.00,VWS V14.01,2013-06-24 16:55:00,
2013-06-24 12:00:00,85.7,64.9,29.59,SSW,193,17.0,26.0,50,0.00,,---,0.00,297.00,VWS V14.01,2013-06-24 17:00:00,
2013-06-24 12:05:00,85.9,65.7,29.59,SW,220,25.0,29.0,51,0.00,,---,0.00,361.00,VWS V14.01,2013-06-24 17:05:00,
2013-06-24 12:06:00,85.9,65.1,29.59,SW,229,19.0,25.0,50,0.00,,---,0.00,361.00,VWS V14.01,2013-06-24 17:06:00,
2013-06-24 12:10:00,85.9,64.5,29.59,SSW,202,21.0,29.0,49,0.00,,---,0.00,274.00,VWS V14.01,2013-06-24 17:10:00,
2013-06-24 12:11:00,85.9,64.5,29.59,WNW,295,19.0,25.0,49,0.00,,---,0.00,255.00,VWS V14.01,2013-06-24 17:11:00,
2013-06-24 12:15:00,85.9,64.5,29.59,SW,226,20.0,25.0,49,0.00,,---,0.00,204.00,VWS V14.01,2013-06-24 17:15:00,
2013-06-24 12:16:00,85.9,65.1,29.59,SSW,202,21.0,24.0,50,0.00,,---,0.00,206.00,VWS V14.01,2013-06-24 17:16:00,
2013-06-24 12:20:00,85.7,65.5,29.59,WNW,298,13.0,27.0,51,0.00,,---,0.00,236.00,VWS V14.01,2013-06-24 17:20:00,
2013-06-24 12:23:00,85.5,65.3,29.59,NNW,344,13.0,19.0,51,0.00,,---,0.00,223.00,VWS V14.01,2013-06-24 17:23:00,
2013-06-24 12:25:00,85.5,65.3,29.59,South,182,12.0,19.0,51,0.00,,---,0.00,158.00,VWS V14.01,2013-06-24 17:25:00,
2013-06-24 12:28:00,85.3,65.1,29.59,SSW,203,16.0,18.0,51,0.00,,---,0.00,134.00,VWS V14.01,2013-06-24 17:28:00,
2013-06-24 12:30:00,85.1,65.5,29.57,WSW,244,13.0,20.0,52,0.00,,---,0.00,104.00,VWS V14.01,2013-06-24 17:30:00,
2013-06-24 12:33:00,84.9,65.3,29.57,WNW,295,14.0,26.0,52,0.00,,---,0.00,88.00,VWS V14.01,2013-06-24 17:33:00,
2013-06-24 12:35:00,84.7,65.7,29.57,NW,315,17.0,26.0,53,0.00,,---,0.00,74.00,VWS V14.01,2013-06-24 17:35:00,
2013-06-24 12:38:00,84.5,65.0,29.57,WNW,298,19.0,28.0,52,0.00,,---,0.00,67.00,VWS V14.01,2013-06-24 17:38:00,
2013-06-24 12:40:00,84.5,65.0,29.57,South,191,18.0,28.0,52,0.00,,---,0.00,69.00,VWS V14.01,2013-06-24 17:40:00,
2013-06-24 12:43:00,84.3,64.2,29.57,SSW,200,17.0,21.0,51,0.00,,---,0.00,69.00,VWS V14.01,2013-06-24 17:43:00,
2013-06-24 12:45:00,84.5,64.4,29.57,SSW,192,22.0,24.0,51,0.00,,---,0.00,65.00,VWS V14.01,2013-06-24 17:45:00,
2013-06-24 12:48:00,84.3,64.2,29.57,South,182,20.0,32.0,51,0.00,,---,0.00,67.00,VWS V14.01,2013-06-24 17:48:00,
2013-06-24 12:50:00,84.1,64.6,29.57,SSW,209,15.0,32.0,52,0.00,,---,0.00,65.00,VWS V14.01,2013-06-24 17:50:00,
2013-06-24 12:54:00,84.0,65.1,29.57,West,264,18.0,21.0,53,0.00,,---,0.00,76.00,VWS V14.01,2013-06-24 17:54:00,
2013-06-24 12:55:00,84.0,65.6,29.57,SW,222,22.0,29.0,54,0.00,,---,0.00,72.00,VWS V14.01,2013-06-24 17:55:00,
2013-06-24 12:59:00,83.8,64.9,29.57,WSW,251,12.0,24.0,53,0.00,,---,0.00,70.00,VWS V14.01,2013-06-24 17:59:00,
2013-06-24 13:00:00,83.8,64.9,29.53,West,270,15.0,26.0,53,0.00,,---,0.00,72.00,VWS V14.01,2013-06-24 18:00:00,
2013-06-24 13:04:00,84.0,65.1,29.53,SW,223,20.0,22.0,53,0.00,,---,0.00,67.00,VWS V14.01,2013-06-24 18:04:00,
2013-06-24 13:05:00,84.0,65.1,29.53,WSW,240,13.0,27.0,53,0.00,,---,0.00,67.00,VWS V14.01,2013-06-24 18:05:00,
2013-06-24 13:09:00,84.1,64.6,29.53,SSW,200,13.0,24.0,52,0.00,,---,0.00,56.00,VWS V14.01,2013-06-24 18:09:00,
2013-06-24 13:10:00,84.1,65.1,29.53,SSW,203,14.0,24.0,53,0.00,,---,0.00,55.00,VWS V14.01,2013-06-24 18:10:00,
2013-06-24 13:14:00,84.1,64.6,29.53,SW,224,22.0,26.0,52,0.00,,---,0.00,49.00,VWS V14.01,2013-06-24 18:14:00,
2013-06-24 13:15:00,84.1,64.6,29.57,SW,233,25.0,29.0,52,0.00,,---,0.00,44.00,VWS V14.01,2013-06-24 18:15:00,
2013-06-24 13:19:00,84.5,64.4,29.57,SW,215,24.0,32.0,51,0.00,,---,0.00,37.00,VWS V14.01,2013-06-24 18:19:00,
2013-06-24 13:20:00,84.5,64.4,29.57,SSW,198,25.0,32.0,51,0.00,,---,0.00,37.00,VWS V14.01,2013-06-24 18:20:00,
2013-06-24 13:25:00,84.5,63.8,29.57,SW,232,16.0,31.0,50,0.00,,---,0.00,35.00,VWS V14.01,2013-06-24 18:25:00,
2013-06-24 13:30:00,84.3,64.2,29.56,SW,220,25.0,31.0,51,0.00,,---,0.00,21.00,VWS V14.01,2013-06-24 18:30:00,
2013-06-24 13:35:00,83.8,64.3,29.56,SSW,200,26.0,30.0,52,0.00,,---,0.00,18.00,VWS V14.01,2013-06-24 18:35:00,
2013-06-24 13:40:00,83.4,64.5,29.56,SSW,192,19.0,26.0,53,0.00,,---,0.00,18.00,VWS V14.01,2013-06-24 18:40:00,
2013-06-24 13:45:00,82.6,65.3,29.55,NW,306,9.0,24.0,56,0.00,,---,0.00,33.00,VWS V14.01,2013-06-24 18:45:00,
2013-06-24 13:50:00,81.6,65.4,29.55,SSW,202,16.0,19.0,58,0.00,,---,0.00,55.00,VWS V14.01,2013-06-24 18:50:00,
2013-06-24 13:51:00,81.4,65.2,29.55,North,356,16.0,16.0,58,0.00,,---,0.00,55.00,VWS V14.01,2013-06-24 18:51:00,
2013-06-24 13:55:00,80.7,65.5,29.55,West,268,18.0,26.0,60,0.00,,---,0.00,97.00,VWS V14.01,2013-06-24 18:55:00,
2013-06-24 13:56:00,80.7,65.5,29.55,NW,315,18.0,27.0,60,0.00,,---,0.00,97.00,VWS V14.01,2013-06-24 18:56:00,
2013-06-24 14:00:00,80.9,65.7,29.56,SW,229,19.0,27.0,60,0.00,,---,0.00,164.00,VWS V14.01,2013-06-24 19:00:00,
2013-06-24 14:01:00,80.9,65.2,29.56,WNW,287,19.0,22.0,59,0.00,,---,0.00,164.00,VWS V14.01,2013-06-24 19:01:00,
2013-06-24 14:05:00,81.4,65.2,29.56,SSW,208,27.0,27.0,58,0.00,,---,0.00,262.00,VWS V14.01,2013-06-24 19:05:00,
2013-06-24 14:06:00,81.6,64.9,29.56,SW,234,13.0,27.0,57,0.00,,---,0.00,276.00,VWS V14.01,2013-06-24 19:06:00,
2013-06-24 14:10:00,82.6,65.3,29.56,SW,216,16.0,27.0,56,0.00,,---,0.00,301.00,VWS V14.01,2013-06-24 19:10:00,
2013-06-24 14:12:00,82.8,65.5,29.56,North,350,13.0,22.0,56,0.00,,---,0.00,301.00,VWS V14.01,2013-06-24 19:12:00,
2013-06-24 14:15:00,83.6,65.7,29.57,SW,229,25.0,30.0,55,0.00,,---,0.00,257.00,VWS V14.01,2013-06-24 19:15:00,
2013-06-24 14:17:00,83.8,65.9,29.57,SW,230,26.0,26.0,55,0.00,,---,0.00,248.00,VWS V14.01,2013-06-24 19:17:00,
2013-06-24 14:20:00,84.3,66.4,29.57,SW,216,11.0,27.0,55,0.00,,---,0.00,181.00,VWS V14.01,2013-06-24 19:20:00,
2013-06-24 14:22:00,84.3,65.9,29.57,South,178,14.0,31.0,54,0.00,,---,0.00,160.00,VWS V14.01,2013-06-24 19:22:00,
2013-06-24 14:25:00,84.1,65.1,29.57,WNW,298,19.0,31.0,53,0.00,,---,0.00,194.00,VWS V14.01,2013-06-24 19:25:00,
2013-06-24 14:28:00,84.1,65.1,29.57,WNW,299,14.0,24.0,53,0.00,,---,0.00,238.00,VWS V14.01,2013-06-24 19:28:00,
2013-06-24 14:30:00,84.1,65.1,29.53,NW,320,14.0,27.0,53,0.00,,---,0.00,306.00,VWS V14.01,2013-06-24 19:30:00,
2013-06-24 14:33:00,84.3,65.3,29.53,NW,323,17.0,27.0,53,0.00,,---,0.00,310.00,VWS V14.01,2013-06-24 19:33:00,
2013-06-24 14:35:00,84.5,65.5,29.53,SW,232,21.0,32.0,53,0.00,,---,0.00,354.00,VWS V14.01,2013-06-24 19:35:00,
2013-06-24 14:38:00,84.7,66.2,29.53,NNW,332,14.0,22.0,54,0.00,,---,0.00,419.00,VWS V14.01,2013-06-24 19:38:00,
2013-06-24 14:40:00,84.9,66.4,29.53,North,350,14.0,22.0,54,0.00,,---,0.00,857.00,VWS V14.01,2013-06-24 19:40:00,
2013-06-24 14:43:00,85.7,67.2,29.53,NW,320,19.0,19.0,54,0.00,,---,0.00,880.00,VWS V14.01,2013-06-24 19:43:00,
2013-06-24 14:45:00,86.1,67.0,29.53,NW,320,12.0,19.0,53,0.00,,---,0.00,311.00,VWS V14.01,2013-06-24 19:45:00,
2013-06-24 14:48:00,86.1,66.4,29.53,North,0,14.0,21.0,52,0.00,,---,0.00,350.00,VWS V14.01,2013-06-24 19:48:00,
2013-06-24 14:50:00,86.1,67.0,29.53,SW,232,17.0,21.0,53,0.00,,---,0.00,614.00,VWS V14.01,2013-06-24 19:50:00,
2013-06-24 14:53:00,86.3,66.1,29.53,West,263,12.0,20.0,51,0.00,,---,0.00,614.00,VWS V14.01,2013-06-24 19:53:00,
2013-06-24 14:55:00,86.5,66.8,29.53,NNW,339,12.0,20.0,52,0.00,,---,0.00,834.00,VWS V14.01,2013-06-24 19:55:00,
2013-06-24 14:59:00,87.2,65.7,29.53,NNW,344,12.0,19.0,49,0.00,,---,0.00,943.00,VWS V14.01,2013-06-24 19:59:00,
2013-06-24 15:00:00,87.4,65.3,29.52,West,261,19.0,21.0,48,0.00,,---,0.00,665.00,VWS V14.01,2013-06-24 20:00:00,
2013-06-24 15:04:00,87.6,66.7,29.52,North,352,18.0,19.0,50,0.00,,---,0.00,792.00,VWS V14.01,2013-06-24 20:04:00,
2013-06-24 15:05:00,87.6,66.1,29.52,SW,216,14.0,21.0,49,0.00,,---,0.00,605.00,VWS V14.01,2013-06-24 20:05:00,
2013-06-24 15:09:00,88.0,67.1,29.52,North,0,22.0,24.0,50,0.00,,---,0.00,781.00,VWS V14.01,2013-06-24 20:09:00,
2013-06-24 15:10:00,88.0,66.5,29.52,North,349,19.0,24.0,49,0.00,,---,0.00,781.00,VWS V14.01,2013-06-24 20:10:00,
2013-06-24 15:15:00,88.0,65.9,29.52,North,352,24.0,30.0,48,0.00,,---,0.00,498.00,VWS V14.01,2013-06-24 20:15:00,
2013-06-24 15:20:00,87.6,66.1,29.52,North,359,19.0,29.0,49,0.00,,---,0.00,361.00,VWS V14.01,2013-06-24 20:20:00,
2013-06-24 15:25:00,87.4,66.5,29.52,North,0,11.0,30.0,50,0.00,,---,0.00,405.00,VWS V14.01,2013-06-24 20:25:00,
2013-06-24 15:30:00,87.8,66.3,29.52,WSW,251,12.0,19.0,49,0.00,,---,0.00,711.00,VWS V14.01,2013-06-24 20:30:00,
2013-06-24 15:35:00,88.2,64.8,29.52,West,270,22.0,31.0,46,0.00,,---,0.00,651.00,VWS V14.01,2013-06-24 20:35:00,
2013-06-24 15:36:00,88.2,64.8,29.52,WNW,301,31.0,31.0,46,0.00,,---,0.00,697.00,VWS V14.01,2013-06-24 20:36:00,
2013-06-24 15:40:00,88.4,66.2,29.52,SW,215,12.0,31.0,48,0.00,,---,0.00,718.00,VWS V14.01,2013-06-24 20:40:00,
2013-06-24 15:41:00,88.4,66.2,29.52,NW,320,15.0,17.0,48,0.00,,---,0.00,718.00,VWS V14.01,2013-06-24 20:41:00,
2013-06-24 15:45:00,88.2,66.1,29.52,NNW,347,16.0,25.0,48,0.00,,---,0.00,642.00,VWS V14.01,2013-06-24 20:45:00,
2013-06-24 15:46:00,88.0,64.7,29.52,NNW,347,19.0,20.0,46,0.00,,---,0.00,373.00,VWS V14.01,2013-06-24 20:46:00,
2013-06-24 15:50:00,87.6,65.5,29.52,North,350,10.0,21.0,48,0.00,,---,0.00,445.00,VWS V14.01,2013-06-24 20:50:00,
2013-06-24 15:51:00,87.6,66.1,29.52,NW,309,20.0,27.0,49,0.00,,---,0.00,445.00,VWS V14.01,2013-06-24 20:51:00,
2013-06-24 15:55:00,87.4,65.9,29.52,NW,311,24.0,29.0,49,0.00,,---,0.00,801.00,VWS V14.01,2013-06-24 20:55:00,
2013-06-24 15:56:00,87.6,66.1,29.52,WSW,241,19.0,25.0,49,0.00,,---,0.00,783.00,VWS V14.01,2013-06-24 20:56:00,
2013-06-24 16:00:00,87.6,66.7,29.52,North,0,24.0,25.0,50,0.00,,---,0.00,494.00,VWS V14.01,2013-06-24 21:00:00,
2013-06-24 16:02:00,87.4,65.9,29.52,WSW,240,13.0,25.0,49,0.00,,---,0.00,494.00,VWS V14.01,2013-06-24 21:02:00,
2013-06-24 16:05:00,87.6,66.1,29.52,NNW,330,11.0,25.0,49,0.00,,---,0.00,829.00,VWS V14.01,2013-06-24 21:05:00,
2013-06-24 16:07:00,87.8,66.3,29.52,West,270,14.0,27.0,49,0.00,,---,0.00,829.00,VWS V14.01,2013-06-24 21:07:00,
2013-06-24 16:10:00,87.8,65.7,29.52,WNW,298,17.0,27.0,48,0.00,,---,0.00,829.00,VWS V14.01,2013-06-24 21:10:00,
2013-06-24 16:12:00,87.8,66.9,29.52,NNW,336,12.0,21.0,50,0.00,,---,0.00,829.00,VWS V14.01,2013-06-24 21:12:00,
2013-06-24 16:15:00,88.0,65.9,29.51,West,274,17.0,21.0,48,0.00,,---,0.00,820.00,VWS V14.01,2013-06-24 21:15:00,
2013-06-24 16:18:00,88.4,66.8,29.51,North,354,12.0,17.0,49,0.00,,---,0.00,772.00,VWS V14.01,2013-06-24 21:18:00,
2013-06-24 16:20:00,89.0,68.0,29.51,NW,312,20.0,20.0,50,0.00,,---,0.00,765.00,VWS V14.01,2013-06-24 21:20:00,
2013-06-24 16:23:00,89.5,66.0,29.51,North,0,16.0,20.0,46,0.00,,---,0.00,762.00,VWS V14.01,2013-06-24 21:23:00,
2013-06-24 16:25:00,89.9,66.4,29.51,NW,304,21.0,21.0,46,0.00,,---,0.00,771.00,VWS V14.01,2013-06-24 21:25:00,
2013-06-24 16:28:00,90.3,66.1,29.51,West,280,18.0,25.0,45,0.00,,---,0.00,771.00,VWS V14.01,2013-06-24 21:28:00,
2013-06-24 16:30:00,90.1,65.9,29.49,NW,316,21.0,26.0,45,0.00,,---,0.00,507.00,VWS V14.01,2013-06-24 21:30:00,
2013-06-24 16:33:00,89.9,65.7,29.49,SSW,212,14.0,29.0,45,0.00,,---,0.00,204.00,VWS V14.01,2013-06-24 21:33:00,
2013-06-24 16:35:00,89.5,64.7,29.49,WSW,250,21.0,29.0,44,0.00,,---,0.00,190.00,VWS V14.01,2013-06-24 21:35:00,
2013-06-24 16:38:00,89.3,65.2,29.49,NW,309,12.0,27.0,45,0.00,,---,0.00,234.00,VWS V14.01,2013-06-24 21:38:00,
2013-06-24 16:40:00,89.0,65.6,29.49,NNW,346,12.0,27.0,46,0.00,,---,0.00,234.00,VWS V14.01,2013-06-24 21:40:00,
2013-06-24 16:43:00,89.3,65.2,29.49,North,359,13.0,31.0,45,0.00,,---,0.00,234.00,VWS V14.01,2013-06-24 21:43:00,
2013-06-24 16:45:00,89.5,65.4,29.49,West,261,20.0,31.0,45,0.00,,---,0.00,804.00,VWS V14.01,2013-06-24 21:45:00,
2013-06-24 16:49:00,90.1,65.9,29.49,North,0,18.0,24.0,45,0.00,,---,0.00,465.00,VWS V14.01,2013-06-24 21:49:00,
2013-06-24 16:50:00,90.1,65.9,29.49,WNW,282,27.0,31.0,45,0.00,,---,0.00,391.00,VWS V14.01,2013-06-24 21:50:00,
2013-06-24 16:54:00,90.7,65.2,29.49,South,179,25.0,32.0,43,0.00,,---,0.00,676.00,VWS V14.01,2013-06-24 21:54:00,
2013-06-24 16:55:00,91.0,65.4,29.49,SW,232,11.0,32.0,43,0.00,,---,0.00,635.00,VWS V14.01,2013-06-24 21:55:00,
2013-06-24 17:00:00,91.4,66.4,29.49,SSW,200,14.0,27.0,44,0.00,,---,0.00,630.00,VWS V14.01,2013-06-24 22:00:00,
2013-06-24 17:05:00,91.2,66.3,29.49,West,268,12.0,28.0,44,0.00,,---,0.00,646.00,VWS V14.01,2013-06-24 22:05:00,
2013-06-24 17:10:00,91.4,65.1,29.49,WSW,253,12.0,30.0,42,0.00,,---,0.00,588.00,VWS V14.01,2013-06-24 22:10:00,
2013-06-24 17:15:00,91.2,66.9,29.49,NNW,346,11.0,25.0,45,0.00,,---,0.00,331.00,VWS V14.01,2013-06-24 22:15:00,
2013-06-24 17:20:00,90.5,66.3,29.49,NNW,329,13.0,19.0,45,0.00,,---,0.00,192.00,VWS V14.01,2013-06-24 22:20:00,
2013-06-24 17:25:00,90.3,66.1,29.49,NW,306,12.0,18.0,45,0.00,,---,0.00,461.00,VWS V14.01,2013-06-24 22:25:00,
2013-06-24 17:30:00,90.3,66.1,29.49,West,280,12.0,21.0,45,0.00,,---,0.00,443.00,VWS V14.01,2013-06-24 22:30:00,
2013-06-24 17:35:00,90.1,67.2,29.49,North,349,13.0,18.0,47,0.00,,---,0.00,215.00,VWS V14.01,2013-06-24 22:35:00,
2013-06-24 17:36:00,90.1,67.2,29.49,NNW,340,15.0,15.0,47,0.00,,---,0.00,215.00,VWS V14.01,2013-06-24 22:36:00,
2013-06-24 17:40:00,90.7,60.9,29.49,SSW,196,19.0,45.0,37,0.00,,---,0.00,262.00,VWS V14.01,2013-06-24 22:40:00,
2013-06-24 17:41:00,90.7,61.6,29.49,NW,309,21.0,22.0,38,0.00,,---,0.00,262.00,VWS V14.01,2013-06-24 22:41:00,
2013-06-24 17:45:00,91.2,62.1,29.49,SSW,196,17.0,30.0,38,0.00,,---,0.00,333.00,VWS V14.01,2013-06-24 22:45:00,
2013-06-24 17:46:00,91.2,62.1,29.49,SW,233,16.0,25.0,38,0.00,,---,0.00,333.00,VWS V14.01,2013-06-24 22:46:00,
2013-06-24 17:50:00,90.7,63.1,29.49,SSW,202,20.0,25.0,40,0.00,,---,0.00,227.00,VWS V14.01,2013-06-24 22:50:00,
2013-06-24 17:51:00,90.7,63.8,29.49,SSW,193,16.0,20.0,41,0.00,,---,0.00,234.00,VWS V14.01,2013-06-24 22:51:00,
2013-06-24 17:55:00,90.3,64.1,29.49,SW,224,12.0,22.0,42,0.00,,---,0.00,250.00,VWS V14.01,2013-06-24 22:55:00,
2013-06-24 17:57:00,90.3,64.8,29.49,SW,216,16.0,18.0,43,0.00,,---,0.00,250.00,VWS V14.01,2013-06-24 22:57:00,
2013-06-24 18:00:00,90.7,63.1,29.48,WSW,254,19.0,27.0,40,0.00,,---,0.00,282.00,VWS V14.01,2013-06-24 23:00:00,
2013-06-24 18:02:00,90.7,63.8,29.48,SW,220,26.0,26.0,41,0.00,,---,0.00,294.00,VWS V14.01,2013-06-24 23:02:00,
2013-06-24 18:05:00,90.7,63.1,29.48,WSW,243,26.0,28.0,40,0.00,,---,0.00,236.00,VWS V14.01,2013-06-24 23:05:00,
2013-06-24 18:07:00,90.7,63.8,29.48,SSW,209,29.0,32.0,41,0.00,,---,0.00,243.00,VWS V14.01,2013-06-24 23:07:00,
2013-06-24 18:10:00,90.5,62.9,29.48,SSW,192,27.0,32.0,40,0.00,,---,0.00,197.00,VWS V14.01,2013-06-24 23:10:00,
2013-06-24 18:12:00,90.5,62.2,29.48,South,184,29.0,32.0,39,0.00,,---,0.00,174.00,VWS V14.01,2013-06-24 23:12:00,
2013-06-24 18:15:00,90.3,62.0,29.49,SW,233,16.0,32.0,39,0.00,,---,0.00,137.00,VWS V14.01,2013-06-24 23:15:00,
2013-06-24 18:17:00,90.3,62.7,29.49,SW,232,27.0,32.0,40,0.00,,---,0.00,139.00,VWS V14.01,2013-06-24 23:17:00,
2013-06-24 18:20:00,90.1,62.5,29.49,WSW,246,16.0,32.0,40,0.00,,---,0.00,146.00,VWS V14.01,2013-06-24 23:20:00,
2013-06-24 18:22:00,89.9,63.1,29.49,West,277,19.0,21.0,41,0.00,,---,0.00,347.00,VWS V14.01,2013-06-24 23:22:00,
2013-06-24 18:25:00,90.1,63.2,29.49,SSW,200,27.0,27.0,41,0.00,,---,0.00,327.00,VWS V14.01,2013-06-24 23:25:00,
2013-06-24 18:28:00,90.1,63.2,29.49,SSW,192,19.0,27.0,41,0.00,,---,0.00,195.00,VWS V14.01,2013-06-24 23:28:00,
2013-06-24 18:30:00,89.9,63.1,29.47,SSW,203,12.0,27.0,41,0.00,,---,0.00,123.00,VWS V14.01,2013-06-24 23:30:00,
2013-06-24 18:33:00,89.9,63.1,29.47,South,191,14.0,19.0,41,0.00,,---,0.00,100.00,VWS V14.01,2013-06-24 23:33:00,
2013-06-24 18:35:00,89.5,63.4,29.47,West,270,14.0,24.0,42,0.00,,---,0.00,83.00,VWS V14.01,2013-06-24 23:35:00,
2013-06-24 18:38:00,89.3,63.9,29.47,SSW,213,17.0,28.0,43,0.00,,---,0.00,86.00,VWS V14.01,2013-06-24 23:38:00,
2013-06-24 18:40:00,89.0,64.3,29.47,SSW,198,19.0,28.0,44,0.00,,---,0.00,99.00,VWS V14.01,2013-06-24 23:40:00,
2013-06-24 18:43:00,89.0,64.3,29.47,NW,323,12.0,24.0,44,0.00,,---,0.00,106.00,VWS V14.01,2013-06-24 23:43:00,
2013-06-24 18:45:00,88.8,63.4,29.47,SSW,209,8.0,25.0,43,0.00,,---,0.00,146.00,VWS V14.01,2013-06-24 23:45:00,
2013-06-24 18:48:00,89.0,64.3,29.47,SSE,164,7.0,14.0,44,0.00,,---,0.00,262.00,VWS V14.01,2013-06-24 23:48:00,
2013-06-24 18:50:00,89.0,64.9,29.47,South,189,19.0,19.0,45,0.00,,---,0.00,151.00,VWS V14.01,2013-06-24 23:50:00,
2013-06-24 18:54:00,88.8,64.1,29.47,SW,226,18.0,20.0,44,0.00,,---,0.00,151.00,VWS V14.01,2013-06-24 23:54:00,
2013-06-24 18:55:00,88.8,64.7,29.47,SSW,199,16.0,25.0,45,0.00,,---,0.00,137.00,VWS V14.01,2013-06-24 23:55:00,
2013-06-24 18:59:00,88.6,63.9,29.47,SSW,205,13.0,22.0,44,0.00,,---,0.00,167.00,VWS V14.01,2013-06-24 23:59:00,
2013-06-24 19:00:00,88.8,64.7,29.48,South,182,25.0,26.0,45,0.00,,---,0.00,179.00,VWS V14.01,2013-06-25 00:00:00,
2013-06-24 19:04:00,88.8,64.7,29.48,South,186,16.0,27.0,45,0.00,,---,0.00,135.00,VWS V14.01,2013-06-25 00:04:00,
2013-06-24 19:05:00,88.8,64.7,29.48,West,260,20.0,29.0,45,0.00,,---,0.00,121.00,VWS V14.01,2013-06-25 00:05:00,
2013-06-24 19:09:00,88.6,64.6,29.48,SW,215,19.0,28.0,45,0.00,,---,0.00,93.00,VWS V14.01,2013-06-25 00:09:00,
2013-06-24 19:10:00,88.6,64.6,29.48,SSW,209,24.0,28.0,45,0.00,,---,0.00,90.00,VWS V14.01,2013-06-25 00:10:00,
2013-06-24 19:14:00,88.4,64.4,29.48,SSW,199,19.0,32.0,45,0.00,,---,0.00,79.00,VWS V14.01,2013-06-25 00:14:00,
2013-06-24 19:15:00,88.2,64.8,29.49,SW,219,15.0,32.0,46,0.00,,---,0.00,72.00,VWS V14.01,2013-06-25 00:15:00,
2013-06-24 19:19:00,88.0,64.7,29.49,SW,232,22.0,33.0,46,0.00,,---,0.00,63.00,VWS V14.01,2013-06-25 00:19:00,
2013-06-24 19:20:00,88.0,64.6,29.49,NW,318,20.0,33.0,46,0.00,,---,0.00,62.00,VWS V14.01,2013-06-25 00:20:00,
2013-06-24 19:24:00,88.0,64.7,29.49,SW,217,18.0,31.0,46,0.00,,---,0.00,62.00,VWS V14.01,2013-06-25 00:24:00,
2013-06-24 19:25:00,88.0,64.6,29.49,WSW,256,28.0,31.0,46,0.00,,---,0.00,62.00,VWS V14.01,2013-06-25 00:25:00,
2013-06-24 19:30:00,87.8,65.1,29.50,SSW,210,22.0,33.0,47,0.00,,---,0.00,53.00,VWS V14.01,2013-06-25 00:30:00,
2013-06-24 19:35:00,87.4,65.3,29.50,SSW,208,16.0,29.0,48,0.00,,---,0.00,95.00,VWS V14.01,2013-06-25 00:35:00,
2013-06-24 19:40:00,87.6,65.5,29.50,SW,217,32.0,35.0,48,0.00,,---,0.00,104.00,VWS V14.01,2013-06-25 00:40:00,
2013-06-24 19:45:00,87.6,65.5,29.50,South,179,18.0,35.0,48,0.00,,---,0.00,76.00,VWS V14.01,2013-06-25 00:45:00,
2013-06-24 19:50:00,87.2,65.1,29.50,South,184,27.0,32.0,48,0.00,,---,0.00,49.00,VWS V14.01,2013-06-25 00:50:00,
2013-06-24 19:55:00,87.0,65.6,29.50,South,176,13.0,34.0,49,0.00,,---,0.00,44.00,VWS V14.01,2013-06-25 00:55:00,
2013-06-24 20:00:00,86.5,65.7,29.50,WSW,237,17.0,26.0,50,0.00,,---,0.00,42.00,VWS V14.01,2013-06-25 01:00:00,
2013-06-24 20:05:00,86.3,66.1,29.50,West,263,10.0,27.0,51,0.00,,---,0.00,44.00,VWS V14.01,2013-06-25 01:05:00,
2013-06-24 20:06:00,86.3,66.1,29.50,NW,322,10.0,11.0,51,0.00,,---,0.00,44.00,VWS V14.01,2013-06-25 01:06:00,
2013-06-24 20:10:00,86.1,65.9,29.50,South,178,11.0,20.0,51,0.00,,---,0.00,37.00,VWS V14.01,2013-06-25 01:10:00,
2013-06-24 20:11:00,85.9,65.7,29.50,WSW,239,12.0,13.0,51,0.00,,---,0.00,37.00,VWS V14.01,2013-06-25 01:11:00,
2013-06-24 20:15:00,85.7,66.1,29.51,WNW,296,11.0,24.0,52,0.00,,---,0.00,32.00,VWS V14.01,2013-06-25 01:15:00,
2013-06-24 20:16:00,85.7,66.1,29.51,SW,230,19.0,21.0,52,0.00,,---,0.00,32.00,VWS V14.01,2013-06-25 01:16:00,
2013-06-24 20:20:00,85.5,65.9,29.51,SW,223,16.0,25.0,52,0.00,,---,0.00,30.00,VWS V14.01,2013-06-25 01:20:00,
2013-06-24 20:21:00,85.5,65.9,29.51,SSW,200,14.0,16.0,52,0.00,,---,0.00,30.00,VWS V14.01,2013-06-25 01:21:00,
2013-06-24 20:25:00,85.3,65.7,29.51,NNW,337,12.0,24.0,52,0.00,,---,0.00,21.00,VWS V14.01,2013-06-25 01:25:00,
2013-06-24 20:26:00,85.3,65.7,29.51,NNW,330,12.0,19.0,52,0.00,,---,0.00,12.00,VWS V14.01,2013-06-25 01:26:00,
2013-06-24 20:30:00,85.3,65.7,29.51,SSE,158,12.0,21.0,52,0.00,,---,0.00,7.00,VWS V14.01,2013-06-25 01:30:00,
2013-06-24 20:32:00,85.3,65.7,29.51,WNW,301,15.0,19.0,52,0.00,,---,0.00,7.00,VWS V14.01,2013-06-25 01:32:00,
2013-06-24 20:35:00,85.3,66.2,29.51,WSW,243,21.0,22.0,53,0.00,,---,0.00,5.00,VWS V14.01,2013-06-25 01:35:00,
2013-06-24 20:37:00,85.1,66.1,29.51,WSW,250,18.0,26.0,53,0.00,,---,0.00,5.00,VWS V14.01,2013-06-25 01:37:00,
2013-06-24 20:40:00,85.1,66.1,29.51,SW,229,17.0,26.0,53,0.00,,---,0.00,0.00,VWS V14.01,2013-06-25 01:40:00,
2013-06-24 20:42:00,84.9,66.4,29.51,WSW,239,20.0,20.0,54,0.00,,---,0.00,0.00,VWS V14.01,2013-06-25 01:42:00,
2013-06-24 20:45:00,84.9,65.9,29.52,WSW,237,19.0,24.0,53,0.00,,---,0.00,0.00,VWS V14.01,2013-06-25 01:45:00,
2013-06-24 20:47:00,84.7,66.2,29.52,SW,236,18.0,19.0,54,0.00,,---,0.00,0.00,VWS V14.01,2013-06-25 01:47:00,
2013-06-24 20:50:00,84.7,66.2,29.52,WNW,301,11.0,21.0,54,0.00,,---,0.00,0.00,VWS V14.01,2013-06-25 01:50:00,
2013-06-24 20:53:00,84.7,66.2,29.52,SSE,162,13.0,25.0,54,0.00,,---,0.00,0.00,VWS V14.01,2013-06-25 01:53:00,
2013-06-24 20:55:00,84.5,66.1,29.52,SE,144,14.0,25.0,54,0.00,,---,0.00,0.00,VWS V14.01,2013-06-25 01:55:00,
2013-06-24 20:58:00,84.5,66.1,29.52,SSW,206,16.0,19.0,54,0.00,,---,0.00,0.00,VWS V14.01,2013-06-25 01:58:00,
2013-06-24 21:00:00,84.3,66.4,29.53,SW,217,22.0,22.0,55,0.00,,---,0.00,0.00,VWS V14.01,2013-06-25 02:00:00,
2013-06-24 21:04:00,84.3,65.9,29.53,WSW,240,18.0,26.0,54,0.00,,---,0.00,0.00,VWS V14.01,2013-06-25 02:04:00,
2013-06-24 21:05:00,84.3,66.4,29.53,WSW,243,16.0,26.0,55,0.00,,---,0.00,0.00,VWS V14.01,2013-06-25 02:05:00,
2013-06-24 21:09:00,84.3,65.9,29.53,West,271,20.0,29.0,54,0.00,,---,0.00,0.00,VWS V14.01,2013-06-25 02:09:00,
2013-06-24 21:10:00,84.3,65.9,29.53,South,191,20.0,29.0,54,0.00,,---,0.00,0.00,VWS V14.01,2013-06-25 02:10:00,
2013-06-24 21:14:00,84.1,65.7,29.52,NW,326,26.0,30.0,54,0.00,,---,0.00,0.00,VWS V14.01,2013-06-25 02:14:00,
2013-06-24 21:15:00,84.1,65.7,29.52,SW,223,21.0,30.0,54,0.00,,---,0.00,0.00,VWS V14.01,2013-06-25 02:15:00,
2013-06-24 21:20:00,84.1,65.7,29.52,SSW,193,13.0,24.0,54,0.00,,---,0.00,0.00,VWS V14.01,2013-06-25 02:20:00,
2013-06-24 21:25:00,84.1,65.7,29.52,SSW,196,21.0,26.0,54,0.00,,---,0.00,0.00,VWS V14.01,2013-06-25 02:25:00,
2013-06-24 21:30:00,84.1,65.7,29.53,SSW,193,21.0,27.0,54,0.00,,---,0.00,0.00,VWS V14.01,2013-06-25 02:30:00,
2013-06-24 21:35:00,84.0,65.6,29.53,South,172,21.0,29.0,54,0.00,,---,0.00,0.00,VWS V14.01,2013-06-25 02:35:00,
2013-06-24 21:40:00,84.0,65.6,29.53,SW,217,19.0,27.0,54,0.00,,---,0.00,0.00,VWS V14.01,2013-06-25 02:40:00,
2013-06-24 21:45:00,84.0,66.1,29.52,SSE,150,20.0,29.0,55,0.00,,---,0.00,0.00,VWS V14.01,2013-06-25 02:45:00,
2013-06-24 21:50:00,83.8,65.9,29.52,South,191,28.0,32.0,55,0.00,,---,0.00,0.00,VWS V14.01,2013-06-25 02:50:00,
2013-06-24 21:55:00,83.8,65.9,29.52,SSW,195,26.0,31.0,55,0.00,,---,0.00,0.00,VWS V14.01,2013-06-25 02:55:00,
2013-06-24 22:00:00,83.6,65.7,29.53,NNW,329,20.0,30.0,55,0.00,,---,0.00,0.00,VWS V14.01,2013-06-25 03:00:00,
2013-06-24 22:01:00,83.6,65.7,29.53,SSW,209,19.0,28.0,55,0.00,,---,0.00,0.00,VWS V14.01,2013-06-25 03:01:00,
2013-06-24 22:05:00,83.4,66.1,29.53,SSW,212,19.0,28.0,56,0.00,,---,0.00,0.00,VWS V14.01,2013-06-25 03:05:00,
2013-06-24 22:06:00,83.4,66.1,29.53,South,179,16.0,26.0,56,0.00,,---,0.00,0.00,VWS V14.01,2013-06-25 03:06:00,
2013-06-24 22:10:00,83.2,65.9,29.53,SW,234,17.0,30.0,56,0.00,,---,0.00,0.00,VWS V14.01,2013-06-25 03:10:00,
2013-06-24 22:11:00,83.2,65.9,29.53,South,185,14.0,17.0,56,0.00,,---,0.00,0.00,VWS V14.01,2013-06-25 03:11:00,
2013-06-24 22:15:00,82.8,65.5,29.53,SSW,196,18.0,27.0,56,0.00,,---,0.00,0.00,VWS V14.01,2013-06-25 03:15:00,
2013-06-24 22:16:00,82.8,65.5,29.53,SSE,162,13.0,19.0,56,0.00,,---,0.00,0.00,VWS V14.01,2013-06-25 03:16:00,
2013-06-24 22:20:00,82.4,65.7,29.53,South,186,19.0,27.0,57,0.00,,---,0.00,0.00,VWS V14.01,2013-06-25 03:20:00,
2013-06-24 22:21:00,82.4,65.7,29.53,SSW,203,13.0,19.0,57,0.00,,---,0.00,0.00,VWS V14.01,2013-06-25 03:21:00,
2013-06-24 22:25:00,82.2,65.5,29.53,WSW,239,21.0,30.0,57,0.00,,---,0.00,0.00,VWS V14.01,2013-06-25 03:25:00,
2013-06-24 22:26:00,82.4,65.7,29.53,SW,226,26.0,29.0,57,0.00,,---,0.00,0.00,VWS V14.01,2013-06-25 03:26:00,
2013-06-24 22:30:00,82.4,65.1,29.51,SSW,193,22.0,32.0,56,0.00,,---,0.00,0.00,VWS V14.01,2013-06-25 03:30:00,
2013-06-24 22:32:00,82.4,65.1,29.51,SSW,198,18.0,34.0,56,0.00,,---,0.00,0.00,VWS V14.01,2013-06-25 03:32:00,
2013-06-24 22:35:00,82.6,65.3,29.51,ESE,123,25.0,37.0,56,0.00,,---,0.00,0.00,VWS V14.01,2013-06-25 03:35:00,
2013-06-24 22:37:00,82.6,65.3,29.51,SW,215,28.0,33.0,56,0.00,,---,0.00,0.00,VWS V14.01,2013-06-25 03:37:00,
2013-06-24 22:40:00,82.6,65.3,29.51,West,278,17.0,33.0,56,0.00,,---,0.00,0.00,VWS V14.01,2013-06-25 03:40:00,
2013-06-24 22:42:00,82.6,65.8,29.51,SW,224,28.0,28.0,57,0.00,,---,0.00,0.00,VWS V14.01,2013-06-25 03:42:00,
2013-06-24 22:45:00,82.4,65.1,29.49,WNW,295,17.0,28.0,56,0.00,,---,0.00,0.00,VWS V14.01,2013-06-25 03:45:00,
2013-06-24 22:47:00,82.4,65.1,29.49,SSE,165,19.0,20.0,56,0.00,,---,0.00,0.00,VWS V14.01,2013-06-25 03:47:00,
2013-06-24 22:50:00,82.4,65.1,29.49,SSE,147,24.0,30.0,56,0.00,,---,0.00,0.00,VWS V14.01,2013-06-25 03:50:00,
2013-06-24 22:52:00,82.2,65.0,29.49,SE,144,17.0,27.0,56,0.00,,---,0.00,0.00,VWS V14.01,2013-06-25 03:52:00,
2013-06-24 22:55:00,82.0,65.8,29.49,South,176,16.0,31.0,58,0.00,,---,0.00,0.00,VWS V14.01,2013-06-25 03:55:00,
2013-06-24 22:58:00,82.0,65.8,29.49,SSW,206,34.0,39.0,58,0.00,,---,0.00,0.00,VWS V14.01,2013-06-25 03:58:00,
2013-06-24 23:00:00,82.0,65.3,29.46,WSW,256,24.0,47.0,57,0.00,,---,0.00,0.00,VWS V14.01,2013-06-25 04:00:00,
2013-06-24 23:01:00,82.2,65.5,29.46,South,185,29.0,29.0,57,0.00,,---,0.00,0.00,VWS V14.01,2013-06-25 04:01:00,
2013-06-24 23:02:00,82.2,65.5,29.46,WSW,240,26.0,43.0,57,0.00,,---,0.00,0.00,VWS V14.01,2013-06-25 04:02:00,
2013-06-24 23:03:00,82.2,65.5,29.46,WSW,241,27.0,43.0,57,0.00,,---,0.00,0.00,VWS V14.01,2013-06-25 04:03:00,
2013-06-24 23:05:00,82.2,65.5,29.46,SSW,205,33.0,43.0,57,0.00,,---,0.00,0.00,VWS V14.01,2013-06-25 04:05:00,
2013-06-24 23:08:00,82.2,65.5,29.46,South,181,17.0,41.0,57,0.00,,---,0.00,0.00,VWS V14.01,2013-06-25 04:08:00,
2013-06-24 23:10:00,82.0,65.3,29.46,SW,232,31.0,41.0,57,0.00,,---,0.00,0.00,VWS V14.01,2013-06-25 04:10:00,
2013-06-24 23:13:00,82.0,65.8,29.46,SSE,157,16.0,38.0,58,0.00,,---,0.00,0.00,VWS V14.01,2013-06-25 04:13:00,
2013-06-24 23:15:00,81.8,65.6,29.47,SSW,195,26.0,38.0,58,0.00,,---,0.00,0.00,VWS V14.01,2013-06-25 04:15:00,
2013-06-24 23:18:00,81.8,65.6,29.47,West,270,18.0,42.0,58,0.00,,---,0.00,0.00,VWS V14.01,2013-06-25 04:18:00,
2013-06-24 23:20:00,81.8,65.6,29.47,SW,222,29.0,42.0,58,0.00,,---,0.00,0.00,VWS V14.01,2013-06-25 04:20:00,
2013-06-24 23:23:00,81.6,65.4,29.47,SW,223,22.0,31.0,58,0.00,,---,0.00,0.00,VWS V14.01,2013-06-25 04:23:00,
2013-06-24 23:25:00,81.6,65.9,29.47,West,272,13.0,34.0,59,0.00,,---,0.00,0.00,VWS V14.01,2013-06-25 04:25:00,
2013-06-24 23:28:00,81.4,65.7,29.47,SW,220,21.0,28.0,59,0.00,,---,0.00,0.00,VWS V14.01,2013-06-25 04:28:00,
2013-06-24 23:30:00,81.4,65.7,29.46,West,265,20.0,30.0,59,0.00,,---,0.00,0.00,VWS V14.01,2013-06-25 04:30:00,
2013-06-24 23:33:00,81.4,65.7,29.46,NNW,344,20.0,28.0,59,0.00,,---,0.00,0.00,VWS V14.01,2013-06-25 04:33:00,
2013-06-24 23:35:00,81.2,66.0,29.46,WNW,302,20.0,28.0,60,0.00,,---,0.00,0.00,VWS V14.01,2013-06-25 04:35:00,
2013-06-24 23:38:00,81.1,65.9,29.46,NNW,337,25.0,28.0,60,0.00,,---,0.00,0.00,VWS V14.01,2013-06-25 04:38:00,
2013-06-24 23:40:00,81.1,65.9,29.46,NW,315,22.0,30.0,60,0.00,,---,0.00,0.00,VWS V14.01,2013-06-25 04:40:00,
2013-06-24 23:45:00,81.1,66.4,29.48,NNW,343,24.0,24.0,61,0.00,,---,0.00,0.00,VWS V14.01,2013-06-25 04:45:00,
2013-06-24 23:46:00,81.1,65.9,29.46,NW,315,22.0,30.0,60,0.00,,---,0.00,0.00,VWS V14.01,2013-06-25 04:46:00,
2013-06-24 23:50:00,81.1,66.4,29.48,NW,312,28.0,32.0,61,0.00,,---,0.00,0.00,VWS V14.01,2013-06-25 04:50:00,
2013-06-24 23:51:00,81.1,66.4,29.48,North,353,16.0,28.0,61,0.00,,---,0.00,0.00,VWS V14.01,2013-06-25 04:51:00,
2013-06-24 23:55:00,80.7,66.5,29.48,NNW,347,20.0,28.0,62,0.00,,---,0.00,0.00,VWS V14.01,2013-06-25 04:55:00,
2013-06-24 23:56:00,80.5,66.3,29.48,NNW,343,19.0,29.0,62,0.00,,---,0.00,0.00,VWS V14.01,2013-06-25 04:56:00,